Rensselaer, IN

10:01 PM CST on December 04, 2016 (GMT -0600)
Jasper County

Weather History for KRZL - December, 2012

Change the Weather History Date:

Wednesday, December 12, 2012

  Actual Average (KVPZ) Record (KVPZ)
Temperature  
Mean Temperature 32 °F 29 °F  
Max Temperature 42 °F 36 °F 63 °F (2015)
Min Temperature 23 °F 22 °F -7 °F (2000)
Degree Days  
Heating Degree Days 32 36  
Month to date heating degree days 408  
Since 1 July heating degree days 1666  
Cooling Degree Days 0 0  
Month to date cooling degree days 0  
Year to date cooling degree days 713  
Moisture  
Dew Point 26 °F    
Average Humidity 78    
Maximum Humidity 93    
Minimum Humidity 53    
Precipitation  
Precipitation 0.00 in 0.06 in 0.16 in (2001)
Month to date precipitation 0.97  
Year to date precipitation 36.30  
Sea Level Pressure  
Sea Level Pressure 30.30 in    
Wind  
Wind Speed 6 mph (South)    
Max Wind Speed 12 mph    
Max Gust Speed -    
Visibility 10 miles    
Events      
T = Trace of Precipitation, MM = Missing Value Source: NWS Daily Summary

Daily Weather History Graph

Daily Weather History Graph

Search for Another Location

Airport or City:

Trip Planner

Search our weather history database for the weather conditions in past years. The results will help you decide how hot, cold, wet, or windy it might be!

Date:

Astronomy

Dec. 12, 2012 Rise Set
Actual Time 7:04 AM CST 4:20 PM CST
Civil Twilight 6:33 AM CST 4:51 PM CST
Nautical Twilight 5:58 AM CST 5:26 PM CST
Astronomical Twilight 5:25 AM CST 5:59 PM CST
Moon 6:08 AM CST (12/12) 3:57 PM CST (12/12)
Length of Visible Light 10h 18m
Length of Day
9h 16m
Waning Crescent, 1% of the Moon is Illuminated
Dec 12
Waning Crescent
Dec 13
New
Dec 19
First Quarter
Dec 28
Full
Jan 4
Last Quarter

Hourly Weather History & Observations

Time (CST) Temp. Windchill Dew Point Humidity Pressure Visibility Wind Dir Wind Speed Gust Speed Precip Events Conditions
12:15 AM 26.6 °F 19.1 °F 24.8 °F 93% 30.19 in 10.0 mi SSW 6.9 mph - N/A   Clear
12:35 AM 26.6 °F 19.1 °F 23.0 °F 86% 30.19 in 10.0 mi SSW 6.9 mph - N/A   Clear
12:55 AM 26.6 °F 19.1 °F 23.0 °F 86% 30.20 in 10.0 mi SSW 6.9 mph - N/A   Clear
1:15 AM 26.6 °F 19.1 °F 24.8 °F 93% 30.20 in 10.0 mi SSW 6.9 mph - N/A   Clear
1:35 AM 26.6 °F 19.1 °F 23.0 °F 86% 30.21 in 10.0 mi SSW 6.9 mph - N/A   Clear
1:55 AM 26.6 °F 19.1 °F 23.0 °F 86% 30.22 in 10.0 mi SSW 6.9 mph - N/A   Clear
2:15 AM 26.6 °F 19.1 °F 23.0 °F 86% 30.22 in 10.0 mi SSW 6.9 mph - N/A   Clear
2:35 AM 26.6 °F 21.2 °F 23.0 °F 86% 30.23 in 10.0 mi SW 4.6 mph - N/A   Clear
2:55 AM 26.6 °F 20.0 °F 23.0 °F 86% 30.23 in 10.0 mi SSW 5.8 mph - N/A   Clear
3:15 AM 26.6 °F 20.0 °F 23.0 °F 86% 30.24 in 10.0 mi South 5.8 mph - N/A   Clear
3:35 AM 24.8 °F 19.1 °F 23.0 °F 93% 30.24 in 10.0 mi South 4.6 mph - N/A   Clear
3:55 AM 24.8 °F 17.9 °F 23.0 °F 93% 30.24 in 10.0 mi SSW 5.8 mph - N/A   Clear
4:15 AM 24.8 °F 20.5 °F 23.0 °F 93% 30.24 in 10.0 mi South 3.5 mph - N/A   Clear
4:35 AM 24.8 °F 20.5 °F 23.0 °F 93% 30.25 in 10.0 mi South 3.5 mph - N/A   Clear
4:55 AM 23.0 °F 18.4 °F 21.2 °F 93% 30.25 in 10.0 mi South 3.5 mph - N/A   Clear
5:35 AM 26.6 °F 20.0 °F 23.0 °F 86% 30.26 in 10.0 mi South 5.8 mph - N/A   Clear
5:55 AM 26.6 °F 21.2 °F 23.0 °F 86% 30.27 in 10.0 mi South 4.6 mph - N/A   Clear
6:15 AM 26.6 °F 22.6 °F 23.0 °F 86% 30.27 in 10.0 mi South 3.5 mph - N/A   Clear
6:35 AM 24.8 °F - 23.0 °F 93% 30.28 in 10.0 mi Calm Calm - N/A   Clear
6:55 AM 23.0 °F 17.0 °F 21.2 °F 93% 30.29 in 10.0 mi SSW 4.6 mph - N/A   Clear
7:15 AM 23.0 °F - 21.2 °F 93% 30.29 in 10.0 mi Calm Calm - N/A   Clear
7:35 AM 26.6 °F 22.6 °F 23.0 °F 86% 30.30 in 10.0 mi SSW 3.5 mph - N/A   Clear
7:55 AM 26.6 °F 22.6 °F 23.0 °F 86% 30.31 in 10.0 mi South 3.5 mph - N/A   Clear
8:15 AM 28.4 °F 24.6 °F 26.6 °F 93% 30.32 in 10.0 mi SSW 3.5 mph - N/A   Clear
8:35 AM 30.2 °F 25.4 °F 26.6 °F 86% 30.32 in 10.0 mi South 4.6 mph - N/A   Clear
8:55 AM 32.0 °F 27.5 °F 26.6 °F 80% 30.33 in 10.0 mi South 4.6 mph - N/A   Clear
9:15 AM 32.0 °F 26.4 °F 28.4 °F 87% 30.33 in 10.0 mi South 5.8 mph - N/A   Clear
9:35 AM 33.8 °F 27.7 °F 28.4 °F 81% 30.34 in 10.0 mi South 6.9 mph - N/A   Clear
9:55 AM 33.8 °F 27.7 °F 30.2 °F 87% 30.34 in 10.0 mi South 6.9 mph - N/A   Clear
10:15 AM 35.6 °F 29.9 °F 30.2 °F 81% 30.35 in 10.0 mi SSW 6.9 mph - N/A   Clear
10:55 AM 39.2 °F 33.0 °F 30.2 °F 70% 30.34 in 10.0 mi South 9.2 mph - N/A   Clear
11:15 AM 39.2 °F 33.6 °F 30.2 °F 70% 30.34 in 10.0 mi South 8.1 mph - N/A   Clear
11:35 AM 41.0 °F 34.3 °F 28.4 °F 61% 30.33 in 10.0 mi SSW 11.5 mph - N/A   Clear
11:55 AM 41.0 °F 34.3 °F 28.4 °F 61% 30.33 in 10.0 mi South 11.5 mph - N/A   Clear
12:15 PM 41.0 °F 35.2 °F 30.2 °F 65% 30.33 in 10.0 mi SSW 9.2 mph - N/A   Clear
12:35 PM 42.8 °F 37.0 °F 30.2 °F 61% 30.32 in 10.0 mi South 10.4 mph - N/A   Clear
12:55 PM 42.8 °F 36.6 °F 28.4 °F 57% 30.32 in 10.0 mi South 11.5 mph - N/A   Clear
1:15 PM 42.8 °F 37.5 °F 26.6 °F 53% 30.31 in 10.0 mi South 9.2 mph - N/A   Clear
1:35 PM 42.8 °F 37.0 °F 26.6 °F 53% 30.30 in 10.0 mi SSW 10.4 mph - N/A   Clear
1:55 PM 42.8 °F 36.6 °F 26.6 °F 53% 30.30 in 10.0 mi South 11.5 mph - N/A   Clear
2:15 PM 42.8 °F 37.5 °F 26.6 °F 53% 30.30 in 10.0 mi South 9.2 mph - N/A   Clear
2:35 PM 42.8 °F 37.0 °F 26.6 °F 53% 30.30 in 10.0 mi South 10.4 mph - N/A   Clear
2:55 PM 42.8 °F 37.5 °F 26.6 °F 53% 30.30 in 10.0 mi South 9.2 mph - N/A   Clear
3:15 PM 42.8 °F 38.6 °F 26.6 °F 53% 30.30 in 10.0 mi South 6.9 mph - N/A   Clear
3:35 PM 41.0 °F 36.4 °F 26.6 °F 57% 30.30 in 10.0 mi South 6.9 mph - N/A   Clear
3:55 PM 41.0 °F 36.4 °F 26.6 °F 57% 30.30 in 10.0 mi South 6.9 mph - N/A   Clear
4:15 PM 37.4 °F 33.8 °F 26.6 °F 65% 30.31 in 10.0 mi South 4.6 mph - N/A   Clear
4:35 PM 35.6 °F 32.8 °F 26.6 °F 70% 30.31 in 10.0 mi South 3.5 mph - N/A   Clear
4:55 PM 33.8 °F 29.6 °F 26.6 °F 75% 30.30 in 10.0 mi SSE 4.6 mph - N/A   Clear
5:15 PM 33.8 °F 28.6 °F 26.6 °F 75% 30.31 in 10.0 mi SSE 5.8 mph - N/A   Clear
5:35 PM 33.8 °F 29.6 °F 28.4 °F 81% 30.31 in 10.0 mi SSE 4.6 mph - N/A   Clear
5:55 PM 32.0 °F 26.4 °F 26.6 °F 80% 30.31 in 10.0 mi SSE 5.8 mph - N/A   Clear
6:15 PM 33.8 °F 28.6 °F 26.6 °F 75% 30.31 in 10.0 mi SSE 5.8 mph - N/A   Clear
6:35 PM 33.8 °F 29.6 °F 26.6 °F 75% 30.31 in 10.0 mi SSE 4.6 mph - N/A   Clear
6:55 PM 33.8 °F 28.6 °F 26.6 °F 75% 30.32 in 10.0 mi SSE 5.8 mph - N/A   Clear
7:15 PM 32.0 °F 26.4 °F 26.6 °F 80% 30.32 in 10.0 mi SSE 5.8 mph - N/A   Clear
7:35 PM 32.0 °F 25.6 °F 26.6 °F 80% 30.33 in 10.0 mi SSE 6.9 mph - N/A   Clear
7:55 PM 32.0 °F 25.6 °F 26.6 °F 80% 30.33 in 10.0 mi SSE 6.9 mph - N/A   Clear
8:15 PM 32.0 °F 24.8 °F 26.6 °F 80% 30.34 in 10.0 mi SSE 8.1 mph - N/A   Clear
8:35 PM 32.0 °F 24.8 °F 26.6 °F 80% 30.33 in 10.0 mi SSE 8.1 mph - N/A   Clear
8:55 PM 32.0 °F 24.8 °F 26.6 °F 80% 30.33 in 10.0 mi SSE 8.1 mph - N/A   Clear
9:15 PM 32.0 °F 25.6 °F 26.6 °F 80% 30.33 in 10.0 mi SSE 6.9 mph - N/A   Clear
9:35 PM 32.0 °F 24.8 °F 26.6 °F 80% 30.32 in 10.0 mi SSE 8.1 mph - N/A   Clear
9:55 PM 32.0 °F 24.8 °F 26.6 °F 80% 30.33 in 10.0 mi South 8.1 mph - N/A   Clear
10:15 PM 32.0 °F 25.6 °F 26.6 °F 80% 30.33 in 10.0 mi SSE 6.9 mph - N/A   Clear
10:35 PM 32.0 °F 26.4 °F 26.6 °F 80% 30.34 in 10.0 mi South 5.8 mph - N/A   Clear
10:55 PM 32.0 °F 26.4 °F 26.6 °F 80% 30.33 in 10.0 mi SSE 5.8 mph - N/A   Clear
11:15 PM 32.0 °F 26.4 °F 26.6 °F 80% 30.33 in 10.0 mi SSE 5.8 mph - N/A   Clear
11:35 PM 32.0 °F 24.8 °F 26.6 °F 80% 30.33 in 10.0 mi SSE 8.1 mph - N/A   Clear
11:55 PM 32.0 °F 26.4 °F 26.6 °F 80% 30.33 in 10.0 mi South 5.8 mph - N/A   Clear